Champaign, IL

10:35 PM CDT on April 27, 2017 (GMT -0500)
Univ Of Illinois-Willard

Weather History for KCMI - October, 2013

Change the Weather History Date:

Sunday, October 20, 2013

  Actual Average Record
Temperature  
Mean Temperature 53 °F 52 °F  
Max Temperature 70 °F 64 °F 84 °F (2003)
Min Temperature 36 °F 41 °F 28 °F (2002)
Degree Days  
Heating Degree Days 12 13  
Month to date heating degree days 124 204  
Since 1 July heating degree days 167 296  
Cooling Degree Days 0 0  
Month to date cooling degree days 45 14  
Year to date cooling degree days 1067 939  
Growing Degree Days 3 (Base 50)    
Moisture  
Dew Point 39 °F    
Average Humidity 62    
Maximum Humidity 92    
Minimum Humidity 31    
Precipitation  
Precipitation 0.00 in 0.11 in 0.84 in (2016)
Month to date precipitation 1.92 2.05  
Year to date precipitation 26.68 32.61  
Sea Level Pressure  
Sea Level Pressure 29.90 in    
Wind  
Wind Speed 15 mph (SSW)    
Max Wind Speed 29 mph    
Max Gust Speed 37 mph    
Visibility 10 miles    
Events      
T = Trace of Precipitation, MM = Missing Value Source: NWS Daily Summary

Daily Weather History Graph

Daily Weather History Graph

Search for Another Location

Airport or City:

Trip Planner

Search our weather history database for the weather conditions in past years. The results will help you decide how hot, cold, wet, or windy it might be!

Date:

Astronomy

Oct. 20, 2013 Rise Set
Actual Time 7:09 AM CDT 6:05 PM CDT
Civil Twilight 6:41 AM CDT 6:33 PM CDT
Nautical Twilight 6:10 AM CDT 7:04 PM CDT
Astronomical Twilight 5:38 AM CDT 7:36 PM CDT
Moon 7:14 PM CDT (10/20) 8:46 AM CDT (10/20)
Length of Visible Light 11h 51m
Length of Day
10h 56m
Full, 97% of the Moon is Illuminated
Oct 20
Full
Oct 26
Last Quarter
Nov 3
New
Nov 9
First Quarter
Nov 17
Full

Hourly Weather History & Observations

Time (CDT) Temp. Windchill Dew Point Humidity Pressure Visibility Wind Dir Wind Speed Gust Speed Precip Events Conditions
12:53 AM 46.0 °F 40.6 °F 36.0 °F 68% 29.93 in 10.0 mi SSW 11.5 mph - N/A   Mostly Cloudy
1:53 AM 45.0 °F 39.3 °F 36.0 °F 71% 29.92 in 10.0 mi SSW 11.5 mph - N/A   Clear
2:53 AM 42.1 °F 37.1 °F 36.0 °F 79% 29.92 in 10.0 mi SSW 8.1 mph - N/A   Clear
3:53 AM 41.0 °F 35.8 °F 35.1 °F 79% 29.92 in 10.0 mi SSW 8.1 mph - N/A   Clear
4:53 AM 37.9 °F 32.7 °F 35.1 °F 89% 29.92 in 10.0 mi SSW 6.9 mph - N/A   Clear
5:53 AM 37.0 °F 31.6 °F 34.0 °F 89% 29.92 in 10.0 mi SSW 6.9 mph - N/A   Clear
6:53 AM 37.9 °F 32.7 °F 35.1 °F 89% 29.94 in 10.0 mi SSW 6.9 mph - N/A   Clear
7:53 AM 39.9 °F 35.1 °F 37.0 °F 89% 29.94 in 10.0 mi SSW 6.9 mph - N/A   Clear
8:53 AM 46.0 °F 40.6 °F 39.9 °F 79% 29.95 in 10.0 mi SSW 11.5 mph - N/A   Clear
9:53 AM 53.1 °F - 39.9 °F 61% 29.93 in 10.0 mi SSW 12.7 mph - N/A   Clear
10:53 AM 57.0 °F - 39.9 °F 53% 29.93 in 10.0 mi SSW 13.8 mph 19.6 mph N/A   Mostly Cloudy
11:53 AM 61.0 °F - 41.0 °F 48% 29.91 in 10.0 mi South 12.7 mph 21.9 mph N/A   Clear
12:53 PM 66.0 °F - 39.9 °F 38% 29.89 in 10.0 mi SSW 19.6 mph 27.6 mph N/A   Scattered Clouds
1:53 PM 69.1 °F - 39.0 °F 33% 29.85 in 10.0 mi SSW 24.2 mph 33.4 mph N/A   Clear
2:53 PM 69.1 °F - 39.9 °F 35% 29.84 in 10.0 mi South 23.0 mph 31.1 mph N/A   Clear
3:53 PM 69.1 °F - 37.9 °F 32% 29.83 in 10.0 mi South 25.3 mph 34.5 mph N/A   Clear
4:53 PM 66.9 °F - 39.9 °F 37% 29.84 in 10.0 mi SSW 27.6 mph 34.5 mph N/A   Mostly Cloudy
5:53 PM 62.1 °F - 41.0 °F 46% 29.85 in 10.0 mi South 15.0 mph 24.2 mph N/A   Clear
6:53 PM 59.0 °F - 41.0 °F 51% 29.87 in 10.0 mi South 15.0 mph - N/A   Clear
7:53 PM 57.0 °F - 42.1 °F 57% 29.88 in 10.0 mi South 13.8 mph - N/A   Clear
8:53 PM 57.0 °F - 43.0 °F 59% 29.88 in 10.0 mi South 16.1 mph - N/A   Clear
9:53 PM 55.9 °F - 43.0 °F 62% 29.89 in 10.0 mi SSW 19.6 mph 25.3 mph N/A   Clear
10:53 PM 54.0 °F - 43.0 °F 66% 29.90 in 10.0 mi SSW 17.3 mph - N/A   Clear
11:53 PM 53.1 °F - 43.0 °F 69% 29.89 in 10.0 mi SSW 13.8 mph - N/A   Clear